This is the latest recevied weather packets stored in our database for station/object N4RCT. If no packets are shown the sender has not sent any weather packets the latest 10 day(s).
| Time | Temp. | Humidity | Pressure | Rain* | Wind** | Luminosity | Snow |
|---|---|---|---|---|---|---|---|
| 1777838036 | 20° C | 41% | 1018 hPa | 0 mm | - | 161 W/m² | - |
| 1777837734 | 20.56° C | 40% | 1018 hPa | 0 mm | - | 486 W/m² | - |
| 1777837430 | 20° C | 40% | 1018 hPa | 0 mm | - | 685 W/m² | - |
| 1777837126 | 20° C | 39% | 1018.2 hPa | 0 mm | - | 689 W/m² | - |
| 1777836822 | 20.56° C | 40% | 1018.4 hPa | 0 mm | - | 695 W/m² | - |
| 1777836518 | 20.56° C | 42% | 1018.5 hPa | 0 mm | - | 705 W/m² | - |
| 1777836214 | 21.11° C | 42% | 1018.5 hPa | 0 mm | - | 699 W/m² | - |
| 1777835910 | 21.11° C | 44% | 1018.7 hPa | 0 mm | - | 713 W/m² | - |
| 1777835607 | 20.56° C | 44% | 1018.5 hPa | 0 mm | - | 727 W/m² | - |
| 1777835304 | 20.56° C | 45% | 1018.7 hPa | 0 mm | - | 731 W/m² | - |
| 1777835001 | 20° C | 45% | 1018.8 hPa | 0 mm | - | 719 W/m² | - |
| 1777834698 | 20° C | 45% | 1018.9 hPa | 0 mm | - | 707 W/m² | - |
| 1777834393 | 19.44° C | 45% | 1018.7 hPa | 0 mm | - | 721 W/m² | - |
| 1777834088 | 19.44° C | 47% | 1018.9 hPa | 0 mm | - | 725 W/m² | - |
| 1777833785 | 20° C | 45% | 1019.2 hPa | 0 mm | - | 687 W/m² | - |
| 1777833480 | 19.44° C | 47% | 1019.1 hPa | 0 mm | - | 722 W/m² | - |
| 1777833178 | 20° C | 45% | 1019.1 hPa | 0 mm | - | 736 W/m² | - |
| 1777832875 | 19.44° C | 45% | 1019.1 hPa | 0 mm | - | 705 W/m² | - |
| 1777832574 | 19.44° C | 44% | 1019.2 hPa | 0 mm | - | 711 W/m² | - |
| 1777832271 | 19.44° C | 46% | 1019.4 hPa | 0 mm | - | 745 W/m² | - |
| 1777831968 | 19.44° C | 45% | 1019.5 hPa | 0 mm | - | 730 W/m² | - |
| 1777831664 | 19.44° C | 47% | 1019.3 hPa | 0 mm | - | 744 W/m² | - |
| 1777831363 | 18.89° C | 47% | 1019.4 hPa | 0 mm | - | 747 W/m² | - |
| 1777831058 | 19.44° C | 46% | 1019.5 hPa | 0 mm | - | 764 W/m² | - |
| 1777830757 | 18.33° C | 45% | 1019.5 hPa | 0 mm | - | 746 W/m² | - |
* Rain latest hour (hover to see other rain measurements)
** Current wind speed in m/s (hover to see current wind gust speed)